This demonstration page uses our WeatherBlox Daily Observations layout. Learn more.

Left ArrowRight Arrow

Hourly Observations for April 24, 2016

Temp ( °F °C ) Dew Point ( °F °C ) Humidity (%) Winds ( mph kmh ) Pressure ( in mb ) Visibility ( mi km ) Precip ( " mm )
12:15 am 00:15 Clear 64 18 50 10 60 60 S 20 31 29.59 1002 10 16 0.00 0.00
12:35 am 00:35 Clear 63 17 50 10 64 64 S 22 35 29.59 1002 10 16 0.00 0.00
12:55 am 00:55 Clear 63 17 50 10 64 64 S 18 30 29.59 1002 10 16 0.00 0.00
1:15 am 01:15 Clear 63 17 50 10 64 64 S 16 26 29.59 1002 10 16 0.00 0.00
1:35 am 01:35 Mostly Clear 61 16 50 10 68 68 S 16 26 29.59 1002 10 16 0.00 0.00
1:55 am 01:55 Clear 61 16 50 10 68 68 S 16 26 29.59 1002 10 16 0.00 0.00
2:15 am 02:15 Clear 61 16 50 10 68 68 S 21 33 29.56 1001 10 16 0.00 0.00
2:35 am 02:35 Clear 61 16 50 10 68 68 S 16 26 29.56 1001 10 16 0.00 0.00
2:55 am 02:55 Clear 63 17 52 11 68 68 S 22 35 29.53 1000 10 16 0.00 0.00
3:15 am 03:15 Clear 63 17 52 11 68 68 S 25 41 29.53 1000 10 16 0.00 0.00
3:35 am 03:35 Mostly Clear 63 17 52 11 68 68 S 24 39 29.53 1000 10 16 0.00 0.00
3:55 am 03:55 Clear 63 17 52 11 68 68 S 21 33 29.56 1001 10 16 0.00 0.00
4:15 am 04:15 Clear 61 16 52 11 72 72 S 18 30 29.53 1000 10 16 0.00 0.00
4:35 am 04:35 Clear 63 17 52 11 68 68 S 17 28 29.56 1001 10 16 0.00 0.00
4:55 am 04:55 Clear 61 16 52 11 72 72 S 20 31 29.56 1001 10 16 0.00 0.00
5:15 am 05:15 Clear 61 16 52 11 72 72 S 16 26 29.53 1000 10 16 0.00 0.00
5:35 am 05:35 Clear 61 16 52 11 72 72 S 17 28 29.53 1000 10 16 0.00 0.00
5:55 am 05:55 Clear 59 15 52 11 77 77 S 17 28 29.56 1001 10 16 0.00 0.00
6:15 am 06:15 Clear 59 15 52 11 77 77 S 16 26 29.56 1001 10 16 0.00 0.00
6:35 am 06:35 Clear 59 15 52 11 77 77 S 16 26 29.56 1001 10 16 0.00 0.00
6:55 am 06:55 Sunny 57 14 52 11 82 82 S 17 28 29.56 1001 10 16 0.00 0.00
7:15 am 07:15 Sunny 57 14 52 11 82 82 S 15 24 29.56 1001 10 16 0.00 0.00
7:35 am 07:35 Sunny 57 14 52 11 82 82 S 16 26 29.59 1002 10 16 0.00 0.00
7:55 am 07:55 Sunny 59 15 52 11 77 77 SSW 15 24 29.59 1002 10 16 0.00 0.00
8:15 am 08:15 Sunny 61 16 52 11 72 72 S 15 24 29.53 1000 10 16 0.00 0.00
8:35 am 08:35 Sunny 61 16 52 11 72 72 S 17 28 29.56 1001 10 16 0.00 0.00
8:55 am 08:55 Sunny 61 16 52 11 72 72 S 14 22 29.56 1001 10 16 0.00 0.00
9:15 am 09:15 Sunny 63 17 54 12 73 73 S 16 26 29.56 1001 10 16 0.00 0.00
9:35 am 09:35 Sunny 64 18 54 12 68 68 SSW 14 22 29.56 1001 10 16 0.00 0.00
9:55 am 09:55 Sunny 64 18 52 11 64 64 SSW 10 17 29.56 1001 10 16 0.00 0.00
10:15 am 10:15 Sunny 64 18 48 9 56 56 SW 9 15 29.53 1000 10 16 0.00 0.00
10:35 am 10:35 Sunny 64 18 48 9 56 56 WSW 6 9 29.53 1000 10 16 0.00 0.00
10:55 am 10:55 Partly Cloudy 64 18 46 8 52 52 W 7 11 29.53 1000 10 16 0.00 0.00
11:15 am 11:15 Mostly Cloudy 66 19 45 7 46 46 WNW 12 19 29.53 1000 10 16 0.00 0.00
11:35 am 11:35 Partly Cloudy 66 19 43 6 43 43 WNW 8 13 29.53 1000 10 16 0.00 0.00
11:55 am 11:55 Partly Cloudy 68 20 39 4 35 35 NW 9 15 29.47 998 10 16 0.00 0.00
12:15 pm 12:15 Partly Cloudy 70 21 39 4 33 33 N 6 9 29.47 998 10 16 0.00 0.00
12:35 pm 12:35 Mostly Sunny 70 21 39 4 33 33 WNW 6 9 29.47 998 10 16 0.00 0.00
12:55 pm 12:55 Mostly Sunny 70 21 37 3 31 31 WNW 5 7 29.47 998 10 16 0.00 0.00
1:15 pm 13:15 Mostly Sunny 70 21 37 3 31 31 NW 6 9 29.47 998 10 16 0.00 0.00
1:35 pm 13:35 Mostly Sunny 70 21 39 4 33 33 S 5 7 29.50 999 10 16 0.00 0.00
1:55 pm 13:55 Mostly Sunny 70 21 37 3 31 31 Calm 29.47 998 10 16 0.00 0.00
2:15 pm 14:15 Sunny 72 22 37 3 29 29 Calm 29.47 998 10 16 0.00 0.00
2:35 pm 14:35 Sunny 72 22 39 4 31 31 WNW 6 9 29.47 998 10 16 0.00 0.00
2:55 pm 14:55 Sunny 73 23 39 4 29 29 Calm 29.44 997 10 16 0.00 0.00
3:15 pm 15:15 Sunny 73 23 39 4 29 29 S 5 7 29.41 996 10 16 0.00 0.00
3:35 pm 15:35 Sunny 73 23 39 4 29 29 S 9 15 29.41 996 10 16 0.00 0.00
3:55 pm 15:55 Sunny 73 23 39 4 29 29 SSE 8 13 29.41 996 10 16 0.00 0.00
4:15 pm 16:15 Sunny 73 23 37 3 27 27 W 3 6 29.41 996 10 16 0.00 0.00
4:35 pm 16:35 Sunny 75 24 37 3 25 25 SSW 9 15 29.41 996 10 16 0.00 0.00
4:55 pm 16:55 Sunny 75 24 37 3 25 25 SW 9 15 29.41 996 10 16 0.00 0.00
5:15 pm 17:15 Sunny 75 24 36 2 24 24 WSW 12 19 29.41 996 10 16 0.00 0.00
5:35 pm 17:35 Sunny 75 24 36 2 24 24 SW 12 19 29.41 996 10 16 0.00 0.00
5:55 pm 17:55 Sunny 77 25 34 1 21 21 W 10 17 29.41 996 10 16 0.00 0.00
6:15 pm 18:15 Sunny 75 24 32 0 21 21 WSW 14 22 29.41 996 10 16 0.00 0.00
6:35 pm 18:35 Sunny 75 24 34 1 22 22 W 14 22 29.41 996 10 16 0.00 0.00
6:55 pm 18:55 Partly Cloudy 73 23 34 1 23 23 W 17 28 29.41 996 10 16 0.00 0.00
7:15 pm 19:15 Mostly Cloudy 70 21 37 3 31 31 WNW 22 35 29.47 998 10 16 0.00 0.00
7:35 pm 19:35 Mostly Sunny 70 21 39 4 33 33 WNW 20 31 29.47 998 10 16 0.00 0.00
7:55 pm 19:55 Sunny 66 19 39 4 37 37 WNW 16 26 29.47 998 10 16 0.00 0.00
8:15 pm 20:15 Sunny 64 18 37 3 37 37 WNW 13 20 29.50 999 10 16 0.00 0.00
8:35 pm 20:35 Clear 64 18 37 3 37 37 WNW 12 19 29.50 999 10 16 0.00 0.00
8:55 pm 20:55 Clear 63 17 37 3 39 39 W 13 20 29.50 999 10 16 0.00 0.00
9:15 pm 21:15 Clear 63 17 37 3 39 39 W 14 22 29.53 1000 10 16 0.00 0.00
9:35 pm 21:35 Clear 61 16 39 4 45 45 W 16 26 29.53 1000 10 16 0.00 0.00
9:55 pm 21:55 Clear 59 15 39 4 48 48 W 13 20 29.56 1001 10 16 0.00 0.00
10:15 pm 22:15 Clear 59 15 39 4 48 48 WNW 10 17 29.59 1002 10 16 0.00 0.00
10:35 pm 22:35 Clear 57 14 39 4 51 51 W 10 17 29.59 1002 10 16 0.00 0.00
10:55 pm 22:55 Clear 55 13 39 4 55 55 W 9 15 29.59 1002 10 16 0.00 0.00
11:15 pm 23:15 Clear 55 13 39 4 55 55 W 9 15 29.59 1002 10 16 0.00 0.00
11:35 pm 23:35 Clear 55 13 39 4 55 55 W 8 13 29.62 1003 10 16 0.00 0.00
11:55 pm 23:55 Clear 55 13 39 4 55 55 W 12 19 29.62 1003 10 16 0.00 0.00

Powered by AerisWeather